Location: Altleiningen
(49.5078°N, 8.0741°E)
Time: 02:54:30
(UTC+00:00)

CZ-4 R/B - Pass Details

Date: 03 March 2021
Orbit: 532 x 597 km, 97.7° (Epoch: 11 April)

Event Time Altitude Azimuth Distance (km) Brightness Sun altitude
Rises 18:02:54 0° 169° (S) 2,669 4.7 -8.7°
Reaches altitude 10° 18:04:59 10° 171° (S) 1,787 3.8 -9.1°
Maximum altitude 18:08:50 75° 257° (WSW) 564 1.5 -9.7°
Drops below altitude 10° 18:12:47 10° 343° (NNW) 1,827 4.2 -10.4°
Sets 18:14:56 0° 346° (NNW) 2,735 5.1 -10.7°
